Location: Calvera
(42.3882°N, 0.6137°E)
Time: 14:48:55
(UTC+00:00)

Cosmos 1626 - Pass Details

Date: 28 October 2020
Orbit: 491 x 494 km, 82.5° (Epoch: 24 November)

Event Time Altitude Azimuth Distance (km) Brightness Sun altitude
Exits shadow 05:14:19 24° 287° (WNW) 1,056 3.2 -13.8°
Drops below altitude 10° 05:17:20 10° 341° (NNW) 1,694 4.6 -13.3°
Sets 05:19:44 0° 356° (N) 2,581 5.6 -12.9°
